Wind_Speed
54 54 54 52 51 49 48 46 44 42 41 39 38 38 38 40 41 41 42 42 43 44 46 48 48 47 45 42 40 35 33 34 35 38 42 39 36 35 34 35 33 32 31 28 28 26 24 23 21 21 21 20 19 18 19 18 16 15 15 16 16 12 8 9 8 6 10 11 12 13 11 8 9 10 9 9 8 8 7 6 5 6 6 5 5 5 5 6
54 55 55 54 53 51 50 48 46 44 42 41 39 38 37 37 38 39 41 41 41 42 43 46 47 47 46 45 43 39 35 33 34 40 40 35 35 36 37 36 33 32 31 30 29 27 25 24 21 21 22 21 20 20 20 19 18 17 16 17 18 13 7 10 13 9 9 12 11 13 12 7 10 13 11 10 9 8 8 7 6 6 6 5 5 5 4 5
50 54 55 56 55 53 52 50 48 46 44 42 40 39 37 36 36 36 38 39 40 41 41 43 45 47 47 47 45 42 39 34 36 40 37 34 34 36 37 37 34 32 31 30 29 29 28 25 22 22 22 22 21 21 20 19 21 20 18 20 18 13 9 11 15 17 15 14 13 16 15 11 13 16 13 10 10 10 9 8 8 8 7 6 6 6 5 5
46 50 54 56 56 55 54 52 50 48 46 44 42 40 39 37 36 35 35 36 38 40 40 41 43 45 47 48 47 45 43 40 40 37 32 34 35 34 37 38 36 34 31 30 31 31 30 28 26 23 21 23 22 21 20 19 21 20 20 23 18 12 12 12 16 22 22 17 16 18 17 14 17 19 15 12 11 9 8 9 9 10 10 8 6 6 6 5
43 45 49 53 56 57 55 54 52 50 48 46 43 41 39 37 36 35 35 34 35 38 39 40 41 43 46 48 48 47 46 45 44 36 31 33 34 34 35 35 36 34 31 31 32 33 32 31 29 25 22 22 22 21 22 20 20 19 21 22 19 16 12 14 20 24 24 21 20 20 18 17 20 20 16 15 13 8 7 9 10 8 10 9 5 5 6 5
41 42 45 49 53 56 57 55 54 52 50 48 46 43 41 39 37 36 35 34 34 36 38 39 40 42 44 46 48 49 48 48 44 36 33 32 32 34 35 33 34 35 33 31 31 33 33 32 30 29 26 24 24 23 24 21 19 22 24 22 21 22 16 16 23 26 25 22 20 19 19 19 21 20 18 19 16 12 13 13 13 14 14 12 8 7 8 7
41 42 42 45 48 52 56 57 55 54 52 50 48 45 43 40 38 37 36 35 35 35 37 38 39 41 42 44 46 49 53 53 44 34 30 31 32 34 35 35 35 36 37 34 32 31 32 33 32 31 29 28 26 24 24 23 21 21 24 23 22 21 18 21 25 28 27 22 20 20 20 20 20 20 20 22 19 17 18 17 16 18 17 17 14 11 10 9
42 42 42 43 45 48 52 55 57 55 54 52 50 47 45 42 39 38 37 36 35 35 36 38 39 41 41 42 45 48 55 58 51 39 25 22 31 36 35 36 36 37 39 37 34 32 31 32 33 32 31 30 28 25 24 24 23 22 24 25 21 17 18 23 27 31 30 25 24 23 22 21 20 22 23 24 21 19 20 20 20 19 19 19 17 14 13 12
41 43 43 42 42 44 47 51 55 57 55 53 52 49 47 44 40 40 38 37 36 36 36 37 40 41 41 42 44 48 55 56 54 49 33 21 25 35 36 35 37 37 39 39 35 33 32 32 32 31 31 31 29 27 24 24 24 22 24 25 23 21 22 26 30 31 30 27 26 26 24 23 22 24 26 25 23 21 22 23 22 21 21 21 19 17 16 15
41 42 43 42 41 42 44 46 50 55 56 55 53 51 50 46 43 42 39 37 37 36 37 37 40 41 42 43 45 48 53 53 53 53 47 33 23 27 33 35 36 36 37 39 37 35 33 31 30 30 30 30 30 30 27 26 25 20 19 20 22 25 23 26 32 33 31 28 28 27 26 24 23 26 29 25 22 22 23 26 26 22 22 22 21 20 19 19
40 41 42 42 41 41 42 44 46 50 54 56 54 52 52 49 45 43 40 38 38 37 38 38 40 42 43 46 49 52 50 48 52 52 51 47 31 21 24 30 35 35 35 38 38 37 34 30 30 30 30 31 31 31 31 29 27 22 20 19 21 23 22 25 32 32 31 31 29 29 29 27 26 29 30 24 22 23 23 25 27 24 24 23 23 23 23 22
39 40 41 41 41 41 40 42 43 46 50 54 56 54 53 51 47 45 41 39 39 38 38 38 40 42 44 48 51 51 48 45 50 51 49 51 42 25 19 23 30 34 34 36 38 37 34 32 32 33 32 31 30 29 30 31 28 24 23 24 24 23 24 30 34 32 30 31 31 30 31 32 31 31 29 25 24 25 26 26 25 25 26 25 24 25 25 25
38 39 41 40 40 40 40 40 41 43 46 50 55 56 54 52 49 46 42 41 40 39 38 39 40 40 45 51 50 47 48 47 49 50 47 49 49 38 26 23 26 32 35 36 37 36 35 34 35 36 35 32 29 28 28 28 29 28 26 27 28 26 29 32 32 33 32 32 32 30 32 35 33 30 26 21 21 21 25 27 25 26 27 26 26 25 26 27
39 39 40 40 41 40 39 39 40 41 42 45 51 55 55 54 51 48 45 43 41 40 39 39 40 40 45 49 48 47 50 49 49 50 48 48 51 49 40 33 27 27 31 36 37 35 35 36 36 36 37 35 32 30 27 23 26 29 28 30 33 32 33 29 26 30 31 31 33 32 35 38 34 30 21 12 15 18 20 23 23 24 26 26 26 26 27 28
40 39 39 40 41 41 40 38 39 40 41 42 46 52 55 55 54 51 47 45 43 41 40 40 41 41 43 48 48 49 50 49 50 51 49 48 51 53 50 45 38 28 26 33 37 36 37 38 37 37 37 38 35 31 28 25 26 26 28 34 36 36 34 27 23 25 25 25 30 31 34 38 35 33 26 15 17 22 22 23 22 22 22 22 24 25 27 27
38 39 40 40 40 41 41 39 39 39 40 41 43 47 53 56 56 53 50 46 44 43 42 42 43 41 42 46 48 51 51 50 50 51 49 49 50 52 51 48 47 41 31 30 33 37 40 38 36 38 39 38 37 34 31 29 30 30 32 35 33 32 31 26 24 24 22 20 24 27 30 33 32 28 27 25 25 27 29 30 27 26 25 24 24 25 26 26
37 37 39 40 40 40 40 40 39 38 39 40 41 44 49 55 57 55 52 48 46 45 45 43 42 41 41 44 47 52 54 51 51 51 49 49 50 50 48 45 47 48 41 35 33 36 41 40 37 39 40 39 39 37 32 31 34 33 32 35 31 26 24 22 24 25 26 25 25 29 33 35 32 28 25 22 21 24 28 30 30 29 28 27 26 25 26 26
36 36 38 39 40 40 39 40 39 38 38 39 41 42 45 52 56 57 55 51 47 46 45 45 43 41 41 43 46 49 49 48 50 51 49 50 51 48 45 44 44 45 43 40 38 36 38 41 40 39 41 43 43 41 40 41 40 34 28 29 28 25 24 22 23 23 26 29 29 31 34 35 35 35 32 27 24 26 29 31 32 33 32 31 29 27 27 27
34 35 37 37 39 40 39 40 39 38 38 38 39 40 41 46 51 57 58 54 52 49 46 47 49 47 44 44 44 44 44 46 48 50 50 51 52 48 41 42 44 43 40 41 41 37 35 38 39 41 44 47 48 48 49 46 40 33 29 26 24 25 29 28 26 23 21 24 28 30 31 31 32 34 34 32 32 33 34 36 37 37 37 36 34 32 29 29
33 34 35 37 38 40 39 39 39 39 39 40 40 40 41 43 47 56 60 57 56 54 49 49 53 52 47 45 43 42 43 43 45 46 46 47 48 44 38 37 42 42 38 38 41 39 35 37 40 44 49 49 47 46 46 44 38 33 31 28 26 26 29 29 27 25 24 24 26 26 26 27 28 32 33 30 29 30 32 35 38 39 37 35 34 32 31 30
32 32 33 35 37 39 39 39 40 39 40 42 43 43 45 47 49 56 61 59 57 56 53 50 51 50 48 45 43 42 41 40 40 42 42 43 44 41 37 38 41 42 39 35 37 38 36 40 43 44 47 47 45 43 42 42 40 36 34 32 27 25 27 25 23 24 26 28 28 24 23 24 24 27 31 29 26 28 29 32 37 39 37 36 36 34 32 31
29 30 32 33 35 38 38 39 39 40 42 44 46 47 48 49 49 54 58 58 58 58 55 51 48 49 48 46 44 41 41 40 39 42 43 41 42 41 38 40 41 42 43 38 37 37 34 38 43 43 45 44 41 41 41 42 41 37 36 33 23 22 25 22 21 23 24 26 27 25 25 26 24 24 27 26 27 31 33 34 37 37 36 37 37 36 35 33
27 29 31 32 34 36 37 38 38 41 43 45 48 50 48 47 47 49 51 53 58 59 58 55 50 48 50 51 48 42 41 43 41 42 45 43 43 43 42 42 41 41 43 41 40 40 36 35 38 40 44 44 39 39 39 39 38 37 36 33 25 21 21 19 19 21 22 21 23 24 26 30 29 28 33 32 31 34 35 36 36 35 35 35 34 34 34 34
27 27 30 31 32 34 36 37 38 42 45 46 48 47 44 44 45 47 46 46 54 61 61 59 53 49 51 53 51 46 42 44 43 42 43 47 47 44 45 47 44 41 43 43 41 41 41 36 34 35 38 44 43 37 35 37 36 35 36 35 29 23 21 20 17 16 17 18 22 22 24 33 35 34 40 41 39 40 40 40 40 39 38 37 36 36 36 35
27 27 29 30 31 33 34 37 42 44 44 46 47 45 44 44 44 47 45 38 44 56 59 58 57 53 51 50 51 50 45 44 46 44 40 44 47 46 47 47 44 43 44 44 41 40 41 38 35 33 28 33 43 40 34 34 35 34 33 33 31 27 22 18 13 12 13 13 16 15 15 22 27 24 25 26 28 31 30 31 34 36 36 37 38 38 36 36
28 28 29 30 31 32 34 39 43 42 45 47 46 45 44 44 43 45 45 34 35 48 55 57 58 56 54 52 49 48 46 45 47 46 41 39 42 46 47 46 45 43 44 44 39 37 41 37 34 32 21 16 29 42 38 31 30 29 29 30 29 27 22 18 14 11 10 9 7 8 11 16 20 19 15 12 16 17 14 15 21 26 31 34 36 36 34 32
29 29 30 30 31 33 37 40 40 41 46 45 44 46 45 44 43 43 41 27 26 41 51 54 57 56 57 56 53 47 42 43 46 47 47 42 38 42 46 47 46 43 42 41 35 37 43 41 38 36 29 17 18 31 38 35 29 24 24 26 26 27 23 20 18 13 11 11 8 9 13 19 28 32 28 25 27 28 26 24 25 29 34 37 37 37 35 32
31 30 30 31 32 34 37 37 38 42 44 41 43 45 46 45 42 43 37 15 11 34 48 52 56 55 55 56 56 51 42 42 47 47 48 46 41 42 45 49 49 45 43 41 39 42 47 47 46 43 40 35 24 22 26 31 28 20 17 19 21 24 25 23 20 18 15 13 12 16 17 16 29 37 30 28 32 36 40 38 37 36 36 38 38 36 32 28
31 31 31 31 32 34 35 36 38 39 40 41 42 43 45 44 41 41 33 13 11 29 42 50 56 54 52 52 54 55 48 44 46 45 46 46 45 46 45 48 49 44 42 41 39 41 42 43 42 38 37 41 38 29 25 25 25 20 16 15 16 17 19 18 18 20 19 15 16 25 22 14 25 37 26 20 23 25 28 28 27 27 27 30 29 24 21 18
32 32 32 31 33 35 36 37 37 37 39 41 40 43 44 42 42 34 19 14 21 27 34 45 56 57 54 50 48 52 53 49 45 43 44 45 46 46 43 43 44 41 39 37 35 37 39 37 31 28 31 35 35 35 35 31 27 25 21 16 16 17 19 17 16 18 13 11 23 33 31 18 18 29 21 16 21 18 17 21 23 22 20 20 19 17 17 16
33 33 32 33 35 35 37 39 38 37 39 40 41 44 43 41 44 29 9 16 28 28 34 44 53 59 59 55 49 49 52 51 49 46 45 44 45 46 44 42 41 35 32 34 33 35 36 33 29 29 30 30 28 28 31 30 30 33 33 30 22 15 17 16 15 16 6 9 26 33 33 26 19 24 17 9 14 14 16 21 21 17 14 14 19 24 24 21
35 34 32 34 36 36 38 38 37 38 37 41 43 44 44 37 34 28 19 20 22 25 37 44 50 59 59 56 52 51 52 51 53 51 49 48 46 47 48 48 46 36 29 34 33 32 34 33 32 31 30 30 30 27 25 26 28 30 33 35 21 5 7 8 6 7 5 12 23 23 22 23 26 38 34 24 25 23 23 23 17 17 20 23 26 27 27 26
36 35 33 35 36 37 39 35 35 37 38 44 43 44 46 29 20 31 35 25 13 21 38 42 49 60 61 55 52 53 54 52 54 53 50 50 47 48 50 50 51 41 32 35 33 28 27 27 29 30 28 29 31 31 30 30 33 35 36 36 23 7 1 3 3 2 3 12 20 18 15 14 19 30 29 26 29 26 27 28 24 26 27 22 16 14 18 20
36 36 35 37 37 37 38 36 35 38 41 44 42 45 43 23 19 38 46 33 16 23 41 43 45 53 57 59 56 55 53 49 53 54 49 48 46 47 49 48 50 44 35 34 31 29 23 18 27 33 31 31 33 33 32 33 34 36 39 37 30 22 11 3 3 1 1 5 11 12 9 6 10 14 10 9 12 12 19 22 21 22 13 7 8 11 13 14
37 37 37 37 38 38 38 37 38 41 43 43 41 44 40 26 28 42 48 40 23 25 42 43 42 47 50 55 57 57 54 46 48 52 49 49 49 49 49 49 51 46 38 33 29 32 29 22 28 34 33 35 34 32 32 31 28 29 34 34 31 34 26 10 5 6 2 3 5 9 10 8 11 19 22 19 14 10 14 17 18 17 11 13 22 23 20 18
39 39 39 39 39 39 39 39 40 42 42 43 43 43 41 36 36 37 44 48 33 27 39 41 42 47 46 48 52 56 56 48 46 48 46 48 50 50 50 49 52 51 46 39 32 32 30 23 29 33 32 35 33 31 35 32 26 26 31 35 33 34 31 18 10 13 9 5 12 18 20 24 27 30 26 19 16 16 18 20 21 21 21 25 27 22 18 17
43 43 42 42 40 38 39 40 43 42 41 43 45 43 43 43 41 36 39 49 43 33 39 41 43 46 44 44 48 54 54 47 46 46 43 44 44 48 49 46 50 51 48 44 37 34 29 20 26 33 32 34 30 26 30 33 31 28 28 34 31 23 26 23 10 6 7 5 13 22 25 25 23 22 14 5 11 13 14 15 15 15 16 16 13 11 12 13
44 43 43 42 39 37 39 42 44 43 41 44 48 46 43 43 46 44 39 39 41 38 40 40 41 43 43 42 45 52 53 46 45 44 41 39 36 43 51 48 47 49 48 46 39 35 30 17 17 27 30 31 29 25 26 31 34 32 26 29 27 15 16 25 14 4 7 5 5 13 20 21 23 28 30 23 14 9 8 10 13 15 17 17 12 9 9 11
42 42 43 41 37 37 41 43 43 43 41 44 49 48 45 43 46 50 45 35 35 40 41 40 40 41 41 43 46 51 54 51 49 45 39 35 31 39 52 52 49 51 51 51 45 39 34 22 15 21 26 27 30 32 34 33 33 31 25 24 29 21 15 24 25 12 8 6 4 8 9 14 27 38 40 37 34 24 16 17 19 19 20 18 12 8 10 14
43 43 43 40 38 38 41 42 42 42 43 45 49 47 44 44 46 51 50 39 35 44 43 38 42 44 42 44 48 51 54 54 55 51 42 37 34 36 46 49 48 51 53 53 50 42 35 28 19 19 24 28 33 37 40 40 38 35 30 27 31 30 19 18 25 23 13 4 3 5 5 11 26 32 29 30 30 24 17 17 17 16 16 17 14 13 15 18
43 43 41 38 38 40 40 41 41 43 44 45 48 46 43 43 45 49 51 39 34 46 50 40 42 48 46 45 48 51 50 48 52 52 45 41 38 35 40 47 47 48 50 51 51 45 36 30 25 25 29 34 37 38 37 38 37 35 36 36 36 37 29 13 11 23 24 14 8 5 5 16 28 26 24 25 21 13 10 11 12 13 17 20 21 20 20 21
44 42 39 36 39 42 41 41 40 42 44 45 46 47 46 44 42 46 52 45 34 40 50 48 43 46 48 47 47 50 48 44 47 49 45 44 45 40 41 46 46 45 47 47 47 47 41 32 26 29 34 34 32 33 32 30 32 33 34 37 36 35 35 21 8 16 25 22 18 9 4 21 35 29 26 28 24 21 19 17 17 17 20 24 24 23 24 26
44 41 36 34 38 42 42 41 40 41 43 44 44 44 46 47 43 42 48 49 42 37 43 47 44 39 43 44 44 47 46 43 46 48 44 43 45 44 40 40 41 43 45 44 41 41 38 30 27 26 27 28 26 30 33 28 28 32 34 37 37 34 37 31 15 11 18 21 20 9 5 23 34 26 25 29 28 26 22 22 24 23 24 27 25 25 26 27
41 39 34 32 36 41 42 41 42 44 44 43 42 43 44 45 44 44 44 42 43 39 37 41 43 39 39 41 43 46 43 38 41 46 42 38 39 42 39 35 37 41 44 44 44 42 34 30 31 22 12 15 17 18 26 30 31 36 38 39 37 33 33 31 21 13 11 18 23 12 8 23 27 16 16 20 18 17 18 21 24 21 21 24 24 26 27 28
40 37 31 28 33 39 42 43 43 45 45 43 43 44 45 43 42 45 45 39 39 40 35 37 41 40 40 41 41 44 42 33 33 41 40 36 36 37 35 32 32 37 41 40 42 43 34 30 35 27 11 10 12 14 27 38 40 37 35 34 35 32 30 31 30 22 13 18 25 19 16 27 29 20 20 18 11 12 16 20 23 20 20 23 26 28 29 30
39 37 31 27 30 37 41 43 42 42 44 43 42 44 45 42 41 40 41 42 41 41 38 37 39 37 37 40 38 39 41 33 29 35 37 36 37 35 32 32 32 34 39 39 39 41 35 30 35 35 25 20 21 25 31 38 40 36 34 34 36 36 34 32 29 28 26 25 26 25 26 31 32 29 29 27 21 18 20 23 26 28 30 30 31 32 31 32
37 37 34 31 31 34 39 42 42 42 43 42 41 42 42 42 41 35 36 45 45 40 39 37 37 36 35 39 37 35 38 34 28 31 33 33 36 35 31 33 35 35 39 40 41 42 39 33 32 33 29 24 23 24 26 29 35 38 38 38 37 36 36 36 33 34 33 25 22 29 32 32 35 33 29 31 32 30 30 31 33 36 37 36 36 35 35 35
36 35 35 34 33 36 40 43 44 43 43 43 40 39 39 43 44 36 34 45 47 41 39 37 37 38 38 39 39 37 36 31 26 30 34 32 33 33 31 32 34 37 39 41 42 42 40 36 33 33 30 23 17 17 20 22 26 31 33 35 35 35 37 39 38 38 35 27 27 33 32 32 37 35 30 31 33 32 33 35 35 35 37 39 40 40 39 39
35 34 33 33 34 36 40 42 42 42 43 43 39 37 37 43 48 41 34 39 44 43 40 36 36 39 38 39 40 39 38 34 28 31 36 36 33 32 32 33 34 37 39 40 41 41 39 36 34 32 32 27 16 11 16 18 18 22 25 26 29 32 35 37 38 38 38 36 38 37 33 35 39 36 32 31 30 31 33 33 33 35 39 42 43 43 43 42
35 34 34 35 34 33 36 40 42 42 42 42 41 39 38 41 48 48 40 35 39 43 42 39 38 38 38 38 38 39 41 41 37 34 37 38 36 35 35 36 37 36 35 35 37 39 38 34 34 33 30 29 24 16 15 17 19 21 21 20 22 23 25 29 33 36 39 41 42 40 39 40 39 34 31 29 29 33 35 34 36 39 42 43 44 44 44 45
34 33 33 37 38 34 35 39 42 42 43 42 42 42 40 40 43 47 45 38 36 40 43 42 40 39 39 38 38 39 39 38 37 35 36 38 38 38 37 37 37 37 36 34 33 35 30 21 23 27 23 22 26 23 18 17 17 19 22 21 22 21 22 27 32 34 36 38 37 37 39 40 37 34 32 31 34 38 40 40 41 41 42 44 45 45 46 46
33 32 31 35 39 36 35 40 42 42 43 43 44 43 42 41 40 41 43 41 37 37 39 40 40 40 40 39 39 40 37 34 34 35 35 35 35 35 35 35 35 35 36 34 31 31 28 19 18 22 19 20 24 24 24 21 14 16 25 28 29 32 33 35 37 37 37 36 34 36 40 41 38 34 34 36 39 41 42 43 43 43 44 46 45 46 46 46
Wind_Direction
227 227 228 228 228 228 228 228 227 225 225 224 224 224 226 227 229 229 229 229 229 228 227 227 227 228 229 229 231 234 236 234 232 232 233 230 226 230 231 232 232 232 232 231 233 236 238 241 244 246 244 243 243 242 243 242 242 244 243 240 237 232 244 250 251 262 237 240 257 252 253 266 271 260 246 254 263 269 275 279 277 270 272 280 282 278 269 258
228 226 227 227 228 228 227 227 227 226 224 224 224 223 223 225 227 228 229 229 229 228 227 227 227 228 228 229 230 232 234 235 235 235 233 229 226 228 229 232 233 233 233 231 233 235 237 239 243 247 244 242 243 243 243 245 243 241 242 243 240 224 233 253 241 244 219 213 240 249 247 240 244 250 247 247 254 262 265 269 276 279 281 282 281 278 267 262
229 227 226 226 227 227 227 227 227 226 224 223 224 223 221 222 225 227 228 229 228 228 227 226 227 227 227 229 230 230 231 234 236 237 234 228 226 226 226 230 232 235 235 233 232 233 235 237 239 243 244 240 239 243 242 244 242 240 240 240 241 229 232 261 253 245 225 206 227 247 251 248 249 257 258 252 251 257 264 274 280 287 289 273 267 274 264 259
230 229 227 226 226 226 226 226 226 226 225 223 223 223 222 221 224 226 227 228 228 227 226 226 225 226 227 228 229 229 230 235 237 237 236 229 226 226 225 227 232 236 239 236 233 232 232 232 234 238 241 238 235 239 239 239 240 239 241 239 238 235 238 261 259 247 235 225 234 249 262 265 258 258 258 252 246 257 274 275 277 292 292 265 247 267 270 261
231 230 228 226 225 225 226 226 225 225 225 224 222 222 222 221 221 224 225 226 227 226 225 225 225 225 226 227 228 228 229 236 237 234 235 232 227 227 225 225 229 234 238 238 234 232 231 230 231 233 237 237 232 234 236 236 240 238 239 241 239 231 236 264 263 253 245 241 244 255 264 260 254 255 254 250 243 235 241 245 246 250 262 265 249 253 270 273
232 231 230 228 226 225 225 225 225 224 224 224 223 221 222 221 219 221 223 224 226 226 224 223 223 223 225 226 227 228 228 232 236 233 234 234 228 226 226 223 224 228 233 236 235 232 232 231 230 232 234 237 233 233 238 238 239 242 241 240 240 233 231 255 260 256 251 247 250 256 256 253 256 258 253 251 244 229 224 225 227 226 239 265 265 249 261 271
233 232 231 230 227 225 224 224 224 224 223 223 223 221 221 220 218 218 220 222 224 225 224 221 221 222 223 225 227 229 228 228 230 231 234 235 227 222 224 223 220 223 227 231 233 232 232 231 230 232 234 237 237 235 240 242 239 244 249 244 242 244 244 251 255 254 253 253 256 258 259 258 259 259 254 251 246 238 236 229 229 237 248 261 260 250 252 259
233 232 232 231 229 226 225 224 224 224 223 222 222 222 220 220 219 218 218 220 223 223 222 219 219 220 221 224 227 229 229 227 226 226 230 236 227 221 223 224 221 222 224 227 230 231 232 231 230 231 234 237 239 239 239 245 243 238 245 246 239 243 247 248 254 257 256 259 263 261 261 260 258 258 255 252 249 244 245 242 237 244 252 257 260 258 254 255
233 233 232 231 230 228 226 224 223 223 223 222 221 221 220 218 218 219 217 217 220 220 220 218 217 219 218 221 226 229 230 228 227 225 226 233 223 218 222 222 222 224 224 225 227 230 231 231 231 232 235 238 239 240 236 237 244 239 245 255 246 237 240 245 254 259 261 263 264 262 260 260 260 260 257 256 255 247 247 250 246 246 253 257 261 262 259 258
232 232 231 231 231 230 228 225 224 223 223 222 221 220 220 217 215 218 217 215 217 217 217 217 216 218 218 220 225 229 231 229 229 227 224 228 224 215 218 220 220 223 225 225 226 227 230 232 232 232 234 237 237 237 234 232 240 241 247 262 253 242 243 252 258 259 261 264 264 264 263 262 261 261 259 258 259 252 246 252 254 250 252 257 261 264 263 263
230 230 230 230 231 231 229 227 224 223 222 221 221 219 220 218 214 216 217 213 215 216 216 216 215 217 217 221 224 228 231 230 230 230 224 226 228 215 215 221 220 221 223 225 225 226 229 231 232 232 230 232 234 235 235 234 239 240 241 251 250 246 243 247 255 258 261 264 265 267 265 262 259 257 258 260 264 262 255 256 261 258 253 256 259 263 264 265
230 229 229 229 230 230 230 228 225 223 222 220 220 219 219 219 215 214 215 214 214 215 216 215 215 217 217 220 224 227 231 231 232 232 226 225 229 223 219 226 221 220 223 224 225 226 227 230 229 232 233 231 232 234 236 234 234 237 239 245 249 249 244 241 248 257 264 265 265 268 267 262 257 257 263 268 270 272 269 263 263 262 258 257 257 260 264 267
230 228 228 228 228 228 228 228 225 224 222 220 219 219 218 218 216 214 213 214 214 214 216 215 215 218 219 222 225 227 229 230 232 233 229 225 227 227 226 231 224 220 224 223 224 224 224 229 229 229 233 233 229 230 236 236 233 231 232 241 247 248 249 249 253 258 260 262 263 264 266 263 260 261 268 279 282 276 271 266 261 261 262 261 260 260 262 265
229 229 228 227 227 227 226 226 226 224 222 220 219 218 217 217 215 214 213 214 214 215 216 215 214 217 222 224 226 226 226 228 231 233 230 225 226 228 227 232 231 223 226 226 222 221 221 226 229 229 230 232 230 230 234 238 238 235 233 241 247 247 249 251 256 262 261 261 261 259 262 263 261 259 260 280 290 273 264 266 263 260 262 264 265 265 265 266
228 228 228 227 226 225 224 224 225 223 222 221 219 218 216 216 215 213 213 214 214 216 217 216 215 217 223 226 225 224 225 226 229 232 231 227 226 229 229 232 232 230 236 232 223 221 221 223 226 228 229 230 232 234 235 236 239 237 233 238 243 245 248 248 251 262 265 259 256 254 258 262 260 259 254 249 262 268 269 270 269 268 267 267 268 269 271 272
227 227 225 226 225 224 223 222 222 222 221 220 218 218 216 214 215 213 212 213 214 215 216 216 215 216 222 226 225 224 224 225 227 230 231 229 228 230 232 235 235 236 242 240 228 221 221 222 223 226 230 230 231 234 234 234 237 235 232 235 238 241 245 245 244 249 251 246 249 251 254 259 260 262 260 252 251 259 267 269 269 271 271 271 271 271 272 274
226 225 224 224 224 223 222 221 219 219 220 219 217 217 215 214 214 213 212 212 212 214 216 217 216 217 223 225 225 225 224 225 226 228 231 231 231 233 232 234 238 240 240 242 238 225 220 220 220 225 229 229 229 229 227 226 228 229 231 235 237 238 240 242 243 243 241 242 249 255 257 257 254 254 257 259 254 250 257 265 269 270 271 270 270 270 271 272
225 224 224 223 223 222 220 218 217 215 216 216 216 215 215 214 213 213 212 210 211 213 216 217 214 216 222 222 223 226 226 226 227 227 230 231 232 235 235 232 234 239 239 240 242 235 224 219 218 223 226 225 224 221 220 223 225 224 225 232 235 236 235 235 238 241 243 246 250 253 257 259 257 254 252 253 252 251 255 261 266 269 271 272 271 271 272 273
225 223 222 222 222 220 218 216 215 214 213 213 213 213 214 214 214 215 212 211 211 212 214 216 213 212 217 220 223 227 226 226 227 226 227 229 231 234 235 233 231 233 236 237 239 238 233 225 219 221 224 223 222 221 223 227 228 225 226 230 232 232 235 234 233 237 243 248 250 249 251 256 260 260 258 256 254 256 260 262 264 267 268 269 271 272 274 274
223 221 220 221 221 218 217 215 214 213 210 209 209 210 211 210 213 215 212 211 213 212 211 215 216 214 215 218 221 224 223 221 224 225 225 226 229 229 228 228 229 229 231 233 232 234 237 234 227 223 224 226 225 224 228 230 229 228 229 231 231 231 234 236 236 239 242 244 249 252 252 253 258 263 263 262 257 255 258 261 263 266 266 267 269 271 274 276
222 221 220 220 220 218 215 213 214 212 209 208 207 208 209 207 209 211 208 211 214 213 212 214 218 218 216 218 220 220 220 216 217 222 223 222 224 225 223 223 225 225 225 226 228 232 233 232 233 229 226 230 230 226 227 230 229 230 232 233 233 232 232 234 235 236 237 239 244 249 253 254 259 263 262 261 260 255 252 254 259 264 267 269 272 273 274 277
221 222 222 220 219 217 214 212 212 211 209 208 208 209 209 207 209 209 207 213 216 213 213 214 217 218 214 217 221 220 220 216 214 218 219 219 221 221 222 224 225 225 226 224 223 226 225 226 231 231 228 230 231 228 226 229 230 231 234 233 232 233 231 230 232 234 234 237 242 246 249 251 252 255 257 258 260 259 256 256 259 262 265 268 272 276 278 280
221 222 222 220 217 214 214 212 210 211 210 208 209 209 207 206 209 210 210 218 219 215 214 214 216 217 211 214 220 220 222 218 214 216 216 216 219 218 219 223 224 224 226 225 222 221 223 226 226 226 228 227 227 228 227 227 228 229 233 232 228 230 231 226 227 236 242 242 243 248 254 255 254 254 256 256 255 259 262 263 263 264 265 267 270 274 278 280
219 221 222 220 215 212 213 211 210 212 211 210 210 208 206 206 208 210 213 221 222 217 216 216 216 216 211 212 216 218 221 219 216 215 214 216 218 216 217 221 222 221 223 226 226 226 229 232 227 221 223 225 224 225 225 228 227 226 232 234 228 223 223 222 224 231 242 249 247 254 266 266 263 264 266 265 264 265 268 269 268 268 269 270 271 272 275 276
218 219 220 218 215 211 211 212 212 212 211 211 209 205 204 205 207 210 213 223 226 220 218 219 220 218 212 210 214 218 221 221 218 216 214 216 217 215 216 219 219 218 222 224 224 226 229 232 227 215 212 219 222 222 221 223 225 226 231 234 229 225 224 224 232 240 241 253 258 261 275 273 269 270 274 277 276 276 278 276 273 272 270 270 270 271 274 275
218 218 218 218 214 210 210 213 212 210 211 210 206 203 204 204 206 208 210 223 234 225 219 219 220 218 213 210 212 216 220 220 218 217 216 216 216 216 215 216 216 218 222 222 222 225 224 222 222 214 202 201 212 218 220 216 216 222 226 232 229 225 228 224 226 245 243 245 272 267 260 271 274 265 260 270 273 273 273 275 280 280 277 274 272 273 277 278
217 216 216 216 213 210 211 213 212 210 210 208 202 203 203 203 206 206 208 227 240 225 219 216 217 216 212 211 211 212 216 216 215 216 216 214 213 214 214 215 216 217 221 221 219 225 224 219 222 225 222 216 197 206 218 219 214 215 218 226 224 220 227 229 229 249 260 257 264 251 253 272 276 268 263 264 265 264 260 259 269 276 278 279 279 281 285 286
217 215 215 215 213 213 214 215 213 211 209 205 201 203 202 203 205 203 208 229 225 216 219 215 214 215 213 214 214 214 216 215 212 213 215 214 212 213 212 216 219 217 219 220 218 226 230 227 231 236 235 235 222 196 205 213 208 204 204 210 213 216 228 238 243 252 263 270 259 243 247 268 273 273 276 276 271 271 272 270 270 271 273 275 279 286 291 293
218 215 213 213 214 214 215 216 214 211 209 205 203 202 202 203 202 203 213 225 191 207 216 214 212 213 214 215 216 217 218 217 214 212 212 211 211 214 213 214 218 219 220 222 222 227 234 236 240 243 240 241 240 232 227 219 206 201 199 198 203 212 224 233 238 246 256 265 255 247 242 246 271 273 274 273 271 277 282 282 278 272 272 276 282 291 296 294
218 215 213 211 213 212 213 214 212 209 209 205 202 201 202 203 200 203 221 221 201 203 205 207 210 211 211 212 214 216 216 218 217 213 211 209 207 212 214 212 214 217 218 219 223 227 234 241 240 238 240 244 247 247 247 245 238 236 237 236 233 228 230 229 229 241 254 257 250 250 242 230 269 277 267 258 262 276 289 287 287 284 280 278 282 292 292 287
218 216 213 211 213 213 212 212 208 205 206 203 201 202 202 201 201 206 227 204 201 201 195 200 208 210 211 211 212 213 213 216 216 212 211 209 206 208 210 210 208 210 211 209 214 222 229 236 234 232 237 239 239 239 241 245 245 247 250 254 255 249 245 241 236 236 237 254 251 253 246 232 244 265 264 257 259 269 282 284 288 283 262 264 285 295 292 284
218 217 214 212 214 214 213 213 206 203 203 200 201 204 200 198 203 211 215 202 198 193 188 192 203 210 212 211 211 213 211 212 214 213 211 208 206 206 206 206 203 200 200 200 203 215 224 231 233 234 235 233 230 222 222 230 232 233 239 241 242 260 261 242 230 230 218 250 254 253 248 232 239 257 262 265 266 267 272 274 267 256 262 278 288 286 277 271
217 216 215 215 216 215 213 213 206 205 204 199 201 206 202 200 210 209 207 207 199 187 188 192 200 208 210 206 208 212 210 209 210 212 213 211 209 208 208 208 205 199 194 194 194 198 212 227 227 223 222 222 223 214 209 218 222 223 227 225 217 196 260 228 211 252 234 252 256 252 244 222 233 259 268 272 272 269 265 263 261 270 281 285 279 267 263 267
216 215 215 216 216 215 214 211 205 206 206 200 201 204 203 205 212 206 206 209 200 191 197 197 196 201 206 205 207 208 204 203 208 210 211 210 208 207 206 206 207 205 198 192 191 191 196 210 215 216 219 218 220 220 223 228 227 227 227 222 215 211 215 216 212 195 87 275 264 243 231 194 201 235 259 286 297 291 276 271 275 283 275 232 262 282 275 274
214 213 215 217 216 214 212 209 205 206 206 203 201 200 200 203 205 206 207 206 196 187 196 198 192 191 197 204 209 209 204 199 203 208 208 204 203 204 205 205 204 204 201 194 192 199 206 212 216 221 227 227 224 220 222 226 224 224 221 215 217 222 222 223 242 240 229 331 282 231 232 243 245 255 264 272 283 290 284 278 276 273 244 246 279 283 275 275
211 211 213 216 216 212 209 207 206 206 206 205 204 203 204 203 203 205 205 205 203 184 183 188 187 185 188 196 202 206 206 203 201 203 205 202 202 203 203 205 205 203 203 201 195 200 207 217 224 222 222 229 231 221 216 217 218 216 210 208 217 224 220 215 234 242 237 274 263 249 253 261 269 278 279 283 292 286 278 275 272 270 266 272 280 279 278 271
208 208 210 213 213 210 208 206 206 206 205 205 208 210 211 208 206 204 202 209 212 192 177 180 183 184 186 188 193 199 201 203 201 199 199 200 203 205 202 204 207 203 203 204 200 202 204 206 221 221 219 222 223 218 218 221 221 213 205 209 214 217 216 212 210 218 206 241 255 246 251 253 257 268 270 319 355 332 305 296 296 293 288 287 285 284 281 251
206 207 210 212 210 207 207 207 206 206 205 206 210 214 214 211 210 209 205 213 219 203 186 183 184 187 188 184 188 194 195 197 199 197 196 196 200 208 207 207 209 207 206 205 203 206 204 191 205 219 224 223 214 207 210 214 218 217 214 217 212 198 203 205 199 194 200 211 246 236 241 239 234 244 253 264 290 316 324 317 316 312 306 306 303 291 276 249
203 206 211 210 207 206 206 207 207 206 205 207 211 214 216 214 213 212 209 216 224 213 197 189 189 191 192 190 189 191 194 197 198 199 199 195 195 206 210 211 213 211 208 208 206 207 206 195 191 204 212 211 203 201 202 201 207 212 215 216 211 207 204 200 202 206 202 205 228 224 223 230 242 252 258 263 267 269 277 286 290 293 292 290 282 265 271 276
200 205 210 207 203 206 206 204 205 205 206 209 212 213 215 216 216 213 211 213 217 213 204 193 192 194 194 194 193 193 195 198 198 199 201 199 198 204 208 211 213 210 208 208 208 206 203 199 194 190 195 199 197 202 208 207 202 200 200 200 203 207 206 204 209 209 204 198 216 227 227 236 251 261 263 265 268 273 282 284 280 280 274 262 250 246 261 277
197 204 209 204 202 204 202 201 202 204 207 211 212 213 213 216 218 215 210 208 205 208 209 200 192 197 197 194 196 196 196 197 198 198 200 202 200 202 206 209 210 208 205 205 205 203 198 195 191 182 187 199 205 209 214 212 207 204 204 202 204 204 198 192 208 208 209 215 205 207 261 251 251 258 261 263 261 255 267 272 256 249 252 253 253 255 263 274
195 203 207 203 202 202 198 198 202 204 209 212 212 213 213 215 219 216 211 213 209 203 207 208 199 194 193 192 196 197 196 196 197 196 199 203 203 205 209 210 211 209 205 203 205 207 205 200 190 185 191 200 207 209 207 207 212 214 210 207 208 206 200 196 197 202 206 216 224 226 269 258 255 254 256 260 255 246 251 257 251 245 249 255 257 260 271 279
195 201 205 204 204 201 196 196 200 203 208 213 212 213 214 216 219 216 214 222 223 202 195 205 208 200 193 192 194 196 196 197 198 198 200 202 204 207 210 211 211 209 208 205 203 202 202 197 187 184 191 195 199 205 203 200 206 210 211 211 210 211 210 209 207 203 199 203 217 222 240 257 261 261 257 261 262 258 256 254 256 256 254 259 264 270 280 286
193 198 203 205 203 200 196 195 198 203 207 211 211 212 215 218 222 219 214 221 225 209 190 193 203 207 203 199 197 197 198 197 198 199 200 199 200 203 206 210 209 205 206 207 204 200 196 191 184 176 173 184 189 198 197 194 199 207 212 213 212 213 215 213 213 219 209 204 211 208 220 252 264 265 253 256 256 250 244 242 249 255 258 266 279 286 290 289
191 196 200 203 200 200 201 200 200 204 206 208 209 211 214 219 222 221 218 219 219 212 199 189 194 203 205 201 199 198 198 197 195 197 197 194 195 199 201 203 204 204 205 207 207 201 192 186 185 181 171 174 176 183 193 196 200 205 209 211 212 212 212 214 216 219 222 217 216 212 223 246 257 255 249 250 235 214 219 228 236 247 261 271 280 286 287 285
190 193 193 191 195 201 204 204 204 206 205 205 207 211 214 217 219 220 223 224 217 209 204 197 193 195 196 195 194 193 195 197 194 194 193 189 190 195 196 196 197 200 200 201 202 198 193 193 193 191 192 196 194 193 197 199 198 201 208 212 213 214 213 214 213 215 223 225 222 223 229 242 253 255 253 254 250 236 232 237 247 259 269 272 272 275 278 280
191 192 190 183 185 196 202 203 205 206 205 204 206 211 214 215 214 215 219 220 215 202 197 201 200 195 191 191 190 190 194 198 199 195 191 186 187 189 191 194 195 197 198 198 199 200 201 204 204 200 201 209 212 208 206 206 205 207 212 214 215 216 215 213 215 221 226 224 228 235 234 239 250 255 255 257 260 258 253 255 263 269 274 277 278 279 278 279
190 193 195 191 188 194 200 202 204 206 207 207 207 210 214 212 211 210 207 210 213 207 196 195 200 201 202 200 196 193 192 193 197 199 195 191 190 187 186 191 195 197 199 200 202 205 207 208 208 206 202 202 211 215 211 212 214 214 218 220 221 220 217 216 221 228 228 222 231 238 235 237 248 254 257 260 263 264 261 263 268 271 274 280 284 286 285 285
192 194 198 197 195 198 201 201 201 203 206 208 209 211 213 212 210 209 202 199 205 211 206 199 197 198 201 202 200 198 195 191 189 195 200 199 196 194 191 193 198 199 198 202 206 207 210 211 207 204 202 199 195 186 191 200 204 208 217 225 226 226 226 224 227 232 233 232 237 241 239 241 249 256 260 261 262 264 265 268 269 271 276 281 285 288 291 293
196 198 200 201 200 202 202 200 198 199 203 206 209 212 215 215 213 212 210 200 196 200 205 207 207 205 203 203 204 207 210 207 199 198 203 202 201 202 200 198 202 200 197 202 204 204 207 210 206 202 202 204 203 191 181 187 189 191 200 212 218 223 226 225 228 231 232 235 241 243 244 247 251 255 257 259 263 267 267 266 266 270 277 283 287 291 294 297
198 201 205 206 203 201 201 200 199 199 201 204 208 211 212 213 214 215 216 215 208 204 207 211 213 212 209 209 212 217 220 219 216 217 219 215 211 210 206 204 204 200 197 200 204 204 202 196 197 200 200 207 214 214 211 208 204 200 199 199 202 208 218 227 232 233 231 234 237 237 241 250 255 254 254 258 263 266 268 268 268 271 275 281 286 289 290 293
200 202 207 207 202 200 199 197 197 199 202 205 208 210 210 211 214 217 217 219 218 215 214 214 212 210 209 209 214 220 221 221 223 226 225 222 218 216 215 215 213 210 208 207 207 209 205 193 188 192 197 212 220 223 226 226 222 220 220 220 222 225 230 235 237 239 240 240 238 238 247 258 262 259 258 261 262 264 268 271 274 275 277 280 283 282 283 286
Height
3035 3038 3041 3044 3047 3050 3053 3057 3061 3064 3068 3071 3074 3078 3081 3084 3088 3091 3095 3098 3102 3105 3109 3112 3115 3119 3121 3124 3126 3127 3129 3129 3130 3131 3131 3138 3146 3147 3148 3148 3152 3155 3157 3159 3160 3162 3164 3166 3167 3168 3169 3171 3172 3173 3173 3174 3175 3176 3176 3177 3177 3178 3180 3181 3181 3181 3180 3180 3179 3180 3181 3181 3181 3182 3183 3183 3184 3184 3184 3184 3184 3184 3184 3184 3184 3184 3184 3184
3030 3033 3036 3040 3043 3046 3049 3053 3057 3060 3064 3068 3071 3074 3078 3081 3084 3088 3091 3094 3098 3102 3105 3108 3112 3115 3118 3121 3123 3125 3126 3126 3127 3125 3129 3138 3143 3144 3145 3147 3150 3152 3154 3156 3159 3161 3163 3164 3166 3166 3167 3169 3170 3171 3172 3173 3174 3175 3176 3175 3175 3177 3179 3180 3180 3179 3179 3179 3177 3178 3181 3181 3180 3180 3182 3183 3183 3183 3183 3184 3184 3184 3184 3184 3184 3184 3184 3184
3025 3029 3032 3035 3038 3042 3045 3049 3053 3056 3060 3064 3068 3071 3075 3078 3081 3084 3087 3091 3095 3099 3102 3105 3109 3112 3115 3117 3120 3122 3123 3123 3122 3122 3129 3136 3138 3140 3143 3145 3148 3150 3152 3155 3157 3159 3160 3162 3164 3164 3165 3167 3169 3170 3171 3172 3172 3174 3174 3174 3174 3177 3178 3179 3178 3177 3177 3177 3177 3178 3180 3181 3180 3180 3181 3182 3183 3183 3183 3183 3183 3184 3184 3184 3184 3184 3184 3184
3021 3024 3028 3031 3034 3037 3041 3045 3048 3052 3056 3060 3064 3068 3071 3075 3078 3081 3084 3088 3092 3095 3099 3102 3105 3109 3111 3114 3117 3119 3121 3120 3118 3122 3129 3132 3134 3137 3140 3142 3145 3148 3150 3153 3155 3156 3158 3160 3161 3162 3163 3165 3167 3168 3169 3170 3171 3172 3172 3172 3174 3177 3178 3177 3175 3174 3176 3177 3177 3177 3179 3181 3179 3179 3181 3181 3182 3182 3183 3183 3183 3183 3183 3183 3183 3183 3184 3184
3017 3020 3023 3027 3030 3033 3037 3040 3044 3048 3052 3056 3061 3064 3068 3072 3076 3079 3082 3085 3088 3092 3095 3099 3102 3105 3107 3110 3113 3115 3119 3117 3115 3122 3128 3129 3133 3135 3137 3140 3143 3146 3148 3149 3152 3153 3155 3157 3159 3161 3161 3162 3165 3166 3167 3168 3170 3170 3170 3171 3173 3175 3176 3175 3173 3172 3174 3176 3176 3177 3178 3178 3177 3178 3180 3180 3181 3182 3182 3182 3182 3183 3182 3182 3183 3183 3183 3183
3013 3016 3019 3022 3026 3029 3033 3036 3040 3044 3048 3053 3057 3061 3065 3069 3073 3076 3079 3082 3085 3089 3092 3095 3099 3102 3104 3107 3110 3112 3114 3113 3113 3121 3125 3126 3130 3132 3135 3138 3140 3143 3144 3146 3149 3151 3153 3155 3157 3158 3159 3161 3163 3164 3165 3168 3168 3168 3168 3170 3171 3173 3174 3173 3171 3171 3173 3174 3175 3175 3176 3176 3176 3178 3179 3179 3180 3181 3181 3181 3182 3182 3182 3181 3182 3183 3182 3183
3010 3013 3016 3018 3022 3025 3029 3033 3036 3040 3045 3049 3053 3057 3061 3065 3069 3073 3076 3079 3082 3086 3089 3092 3096 3099 3102 3104 3106 3107 3107 3108 3113 3119 3122 3124 3126 3129 3131 3134 3137 3138 3139 3142 3145 3149 3151 3153 3155 3156 3158 3159 3161 3163 3164 3166 3167 3166 3167 3168 3170 3171 3173 3172 3169 3169 3171 3173 3174 3174 3174 3175 3176 3176 3176 3177 3179 3180 3179 3180 3180 3181 3181 3181 3181 3182 3182 3182
3005 3009 3012 3015 3018 3021 3025 3029 3032 3036 3040 3045 3049 3053 3058 3062 3066 3070 3074 3076 3080 3083 3086 3089 3092 3095 3099 3101 3103 3103 3101 3104 3112 3117 3120 3122 3123 3126 3128 3130 3133 3134 3136 3139 3143 3147 3149 3150 3152 3155 3156 3157 3160 3162 3163 3165 3165 3165 3165 3166 3168 3170 3171 3170 3168 3167 3169 3171 3172 3172 3173 3174 3174 3174 3174 3175 3177 3179 3178 3178 3179 3180 3180 3180 3180 3181 3182 3182
3001 3004 3008 3011 3014 3017 3021 3025 3029 3033 3037 3041 3045 3050 3054 3058 3063 3067 3070 3074 3077 3080 3083 3086 3089 3092 3096 3098 3099 3097 3096 3102 3110 3115 3119 3120 3121 3123 3125 3128 3130 3132 3134 3137 3142 3144 3146 3148 3151 3153 3154 3156 3159 3160 3162 3162 3162 3164 3164 3164 3166 3167 3168 3167 3167 3166 3167 3169 3170 3170 3171 3172 3173 3172 3171 3173 3175 3177 3177 3176 3178 3179 3179 3179 3179 3180 3181 3181
2997 3000 3004 3007 3011 3014 3017 3021 3025 3029 3033 3037 3042 3046 3051 3055 3060 3064 3067 3071 3074 3078 3081 3083 3086 3089 3092 3095 3095 3092 3094 3101 3106 3111 3116 3119 3120 3121 3123 3125 3127 3130 3132 3136 3139 3141 3144 3147 3150 3152 3153 3154 3156 3157 3159 3160 3160 3163 3163 3163 3164 3164 3166 3166 3164 3165 3166 3167 3168 3168 3169 3170 3171 3169 3168 3171 3173 3174 3175 3174 3175 3177 3177 3178 3178 3178 3179 3179
2994 2996 3000 3003 3007 3010 3014 3017 3021 3025 3029 3033 3038 3043 3047 3052 3056 3060 3064 3068 3072 3075 3078 3081 3084 3085 3088 3090 3089 3088 3092 3099 3102 3106 3113 3116 3118 3120 3121 3123 3125 3128 3131 3133 3136 3139 3143 3146 3149 3149 3149 3150 3152 3154 3156 3157 3159 3161 3162 3161 3161 3162 3164 3163 3161 3162 3164 3165 3165 3166 3166 3167 3167 3166 3166 3170 3171 3171 3173 3173 3173 3175 3176 3176 3177 3177 3177 3178
2990 2993 2996 2999 3003 3006 3010 3013 3017 3021 3025 3030 3034 3039 3044 3048 3053 3057 3062 3066 3069 3072 3075 3078 3080 3082 3085 3084 3083 3086 3092 3098 3098 3102 3109 3113 3116 3119 3120 3121 3123 3126 3129 3131 3134 3138 3141 3144 3146 3146 3146 3148 3151 3152 3152 3154 3157 3158 3160 3159 3158 3160 3160 3159 3159 3161 3163 3163 3164 3165 3163 3163 3164 3164 3165 3169 3170 3170 3170 3171 3171 3172 3173 3174 3175 3175 3175 3176
2985 2989 2993 2996 2999 3003 3006 3010 3014 3018 3021 3026 3030 3035 3040 3045 3050 3055 3059 3063 3066 3070 3073 3075 3078 3080 3080 3077 3080 3086 3090 3094 3094 3097 3106 3111 3113 3116 3118 3119 3122 3124 3126 3128 3131 3135 3138 3140 3141 3142 3144 3146 3149 3149 3149 3152 3154 3155 3157 3156 3156 3157 3155 3156 3158 3159 3160 3161 3162 3163 3160 3158 3161 3163 3165 3167 3168 3168 3167 3167 3169 3169 3170 3171 3172 3173 3173 3174
2981 2985 2988 2992 2995 2999 3003 3006 3010 3014 3018 3022 3027 3031 3036 3041 3046 3051 3056 3060 3064 3067 3070 3073 3075 3076 3074 3074 3080 3084 3086 3089 3090 3094 3102 3107 3110 3113 3115 3117 3120 3122 3124 3126 3128 3131 3134 3136 3138 3139 3141 3143 3145 3147 3149 3151 3152 3153 3156 3154 3153 3152 3150 3154 3157 3156 3158 3158 3160 3161 3157 3155 3160 3162 3164 3165 3165 3165 3165 3165 3166 3167 3167 3168 3169 3170 3171 3171
2978 2981 2984 2988 2992 2995 2999 3003 3006 3011 3015 3019 3023 3027 3032 3037 3042 3048 3052 3056 3061 3064 3067 3070 3071 3072 3071 3072 3076 3079 3081 3084 3087 3092 3098 3103 3106 3109 3112 3114 3116 3119 3122 3124 3126 3128 3130 3133 3135 3137 3138 3140 3143 3146 3148 3149 3149 3151 3151 3148 3148 3148 3148 3154 3155 3153 3155 3156 3157 3158 3154 3152 3158 3160 3162 3164 3163 3162 3163 3163 3164 3165 3166 3166 3167 3167 3168 3168
2974 2977 2981 2984 2988 2992 2995 2999 3003 3007 3011 3015 3020 3023 3028 3033 3038 3044 3048 3053 3058 3061 3064 3064 3065 3067 3067 3067 3071 3074 3076 3080 3084 3089 3093 3099 3102 3105 3108 3111 3113 3116 3119 3122 3124 3125 3127 3130 3133 3134 3135 3138 3140 3143 3146 3146 3146 3146 3145 3143 3145 3147 3148 3152 3153 3152 3153 3153 3153 3155 3152 3152 3157 3158 3159 3161 3161 3160 3160 3160 3162 3163 3164 3164 3165 3165 3166 3166
2971 2974 2977 2981 2984 2988 2992 2996 3000 3004 3008 3012 3016 3020 3025 3029 3034 3040 3045 3049 3053 3057 3059 3059 3062 3065 3063 3063 3066 3068 3071 3077 3082 3085 3090 3095 3098 3101 3104 3107 3109 3113 3117 3120 3121 3122 3123 3126 3129 3130 3132 3135 3137 3141 3142 3141 3139 3140 3141 3141 3144 3146 3148 3149 3150 3150 3152 3151 3151 3152 3150 3150 3155 3156 3156 3158 3159 3159 3158 3158 3159 3160 3162 3162 3163 3163 3164 3165
2967 2971 2974 2977 2981 2984 2988 2992 2996 3001 3005 3009 3013 3017 3022 3025 3031 3035 3039 3044 3049 3053 3054 3054 3059 3059 3055 3057 3061 3065 3071 3076 3079 3082 3087 3090 3092 3096 3101 3104 3107 3110 3114 3116 3117 3119 3121 3123 3126 3127 3129 3130 3132 3134 3133 3130 3132 3138 3140 3141 3143 3146 3146 3147 3148 3148 3149 3149 3149 3149 3147 3147 3151 3153 3154 3156 3156 3156 3156 3157 3157 3158 3159 3159 3160 3161 3162 3162
2964 2967 2970 2974 2977 2981 2985 2989 2993 2997 3002 3006 3010 3014 3018 3022 3026 3029 3032 3037 3040 3042 3043 3044 3048 3047 3049 3056 3061 3065 3071 3074 3075 3078 3082 3084 3088 3092 3096 3100 3104 3107 3110 3112 3114 3116 3118 3120 3122 3122 3122 3122 3124 3126 3126 3128 3134 3138 3139 3140 3142 3144 3143 3144 3146 3146 3147 3147 3146 3146 3145 3145 3148 3149 3151 3153 3154 3153 3153 3154 3154 3155 3156 3157 3158 3158 3159 3159
2960 2964 2967 2970 2974 2977 2981 2985 2990 2994 2999 3003 3006 3010 3012 3014 3019 3021 3025 3029 3030 3034 3037 3039 3042 3045 3050 3056 3059 3062 3066 3069 3071 3073 3077 3081 3085 3089 3093 3096 3100 3103 3105 3109 3111 3113 3115 3116 3116 3117 3117 3119 3122 3125 3128 3132 3136 3137 3138 3139 3140 3141 3140 3142 3144 3145 3145 3144 3143 3144 3144 3144 3145 3146 3147 3149 3150 3150 3150 3150 3151 3152 3153 3154 3155 3156 3157 3157
2957 2961 2964 2967 2971 2974 2977 2982 2987 2991 2995 2998 3001 3002 3003 3007 3011 3014 3020 3024 3026 3032 3036 3037 3041 3045 3051 3054 3055 3059 3061 3064 3067 3071 3075 3079 3082 3086 3089 3092 3095 3097 3101 3106 3109 3110 3112 3112 3112 3114 3117 3120 3122 3125 3128 3131 3133 3134 3135 3136 3137 3138 3139 3140 3143 3142 3141 3141 3141 3143 3142 3142 3143 3143 3144 3145 3146 3146 3147 3148 3148 3149 3150 3151 3152 3153 3154 3155
2954 2957 2961 2965 2968 2971 2975 2978 2983 2988 2991 2993 2995 2996 2998 3005 3010 3014 3020 3021 3023 3029 3032 3035 3038 3042 3049 3053 3053 3056 3058 3060 3065 3068 3072 3075 3078 3082 3085 3088 3091 3094 3097 3102 3104 3106 3108 3107 3109 3113 3117 3120 3121 3123 3126 3128 3130 3132 3133 3134 3136 3137 3138 3139 3139 3139 3139 3138 3139 3141 3139 3139 3140 3140 3140 3141 3142 3142 3144 3145 3146 3147 3148 3149 3149 3150 3151 3152
2951 2954 2958 2961 2965 2969 2972 2975 2980 2984 2985 2988 2990 2992 2999 3006 3011 3016 3020 3020 3021 3025 3027 3030 3034 3038 3045 3047 3048 3053 3054 3057 3061 3063 3068 3071 3074 3078 3081 3083 3087 3091 3093 3095 3098 3101 3102 3104 3107 3111 3113 3116 3119 3121 3124 3126 3128 3129 3130 3132 3134 3135 3137 3137 3136 3136 3137 3137 3138 3138 3136 3134 3136 3136 3136 3138 3139 3139 3140 3141 3143 3144 3145 3146 3148 3148 3149 3149
2948 2952 2955 2959 2962 2965 2969 2973 2976 2978 2981 2984 2987 2992 3000 3005 3009 3014 3017 3018 3017 3019 3023 3028 3031 3035 3039 3042 3045 3049 3050 3054 3057 3060 3064 3067 3070 3075 3077 3079 3083 3086 3088 3091 3094 3096 3098 3102 3106 3109 3110 3113 3116 3118 3121 3123 3125 3126 3128 3129 3131 3134 3134 3134 3134 3135 3135 3134 3135 3136 3133 3129 3131 3133 3132 3134 3136 3136 3137 3138 3139 3141 3142 3143 3144 3145 3146 3147
2946 2949 2953 2956 2959 2962 2967 2969 2969 2973 2978 2981 2985 2992 2999 3002 3006 3011 3015 3016 3012 3014 3020 3024 3027 3030 3035 3040 3042 3045 3048 3050 3054 3057 3061 3064 3067 3071 3073 3077 3080 3081 3084 3088 3090 3092 3096 3101 3104 3107 3108 3110 3113 3115 3118 3120 3122 3124 3126 3127 3130 3131 3131 3132 3134 3134 3133 3132 3133 3135 3132 3124 3125 3129 3129 3131 3133 3132 3133 3134 3134 3136 3138 3139 3140 3142 3143 3144
2943 2947 2950 2953 2956 2960 2962 2961 2965 2971 2974 2977 2983 2991 2996 2999 3005 3008 3012 3013 3007 3007 3012 3016 3020 3023 3030 3035 3037 3043 3045 3044 3050 3055 3059 3062 3066 3070 3072 3073 3076 3079 3082 3086 3088 3089 3093 3098 3101 3104 3106 3107 3109 3112 3115 3118 3120 3122 3123 3125 3128 3129 3130 3131 3133 3133 3131 3130 3131 3133 3131 3123 3121 3125 3127 3129 3130 3129 3131 3131 3131 3132 3133 3134 3136 3138 3140 3141
2941 2944 2947 2950 2953 2956 2956 2957 2963 2967 2969 2975 2983 2989 2993 2998 3002 3005 3011 3011 3000 2998 3005 3010 3014 3018 3025 3030 3032 3037 3037 3038 3048 3052 3054 3060 3064 3067 3069 3069 3072 3076 3079 3083 3085 3084 3088 3094 3096 3099 3104 3105 3105 3108 3112 3116 3118 3119 3120 3122 3125 3126 3127 3128 3129 3130 3128 3128 3129 3130 3131 3125 3116 3117 3123 3127 3127 3127 3128 3130 3130 3131 3130 3131 3133 3134 3136 3138
2938 2941 2944 2947 2950 2952 2953 2957 2961 2963 2968 2976 2981 2986 2991 2995 3000 3003 3007 3002 2990 2990 2999 3004 3010 3017 3023 3026 3028 3031 3032 3037 3044 3045 3050 3057 3059 3061 3064 3065 3069 3073 3075 3077 3079 3080 3084 3088 3090 3095 3100 3102 3104 3107 3109 3113 3115 3116 3117 3118 3121 3123 3124 3125 3126 3127 3126 3126 3126 3127 3132 3127 3112 3111 3119 3122 3122 3122 3123 3126 3128 3128 3129 3128 3130 3132 3133 3135
2935 2938 2941 2945 2947 2950 2953 2955 2959 2964 2969 2974 2980 2984 2989 2993 2997 3001 3001 2992 2982 2985 2992 2998 3007 3012 3015 3020 3024 3027 3032 3036 3038 3042 3048 3052 3053 3057 3059 3063 3068 3072 3073 3074 3077 3080 3080 3083 3089 3092 3095 3098 3103 3106 3107 3110 3112 3113 3115 3116 3119 3121 3122 3124 3124 3125 3126 3124 3122 3124 3130 3127 3110 3107 3117 3118 3117 3118 3119 3122 3123 3124 3126 3126 3128 3130 3131 3132
2932 2935 2938 2942 2944 2946 2949 2951 2956 2962 2967 2972 2978 2982 2986 2989 2992 2994 2989 2980 2978 2983 2987 2992 2999 3003 3007 3015 3020 3023 3028 3032 3035 3041 3046 3046 3049 3054 3057 3062 3067 3069 3071 3073 3077 3078 3078 3082 3087 3088 3090 3095 3101 3103 3105 3108 3110 3112 3114 3116 3118 3120 3121 3123 3122 3124 3126 3121 3118 3120 3126 3129 3114 3105 3113 3116 3114 3117 3117 3118 3120 3121 3123 3124 3126 3128 3129 3130
2929 2932 2936 2938 2940 2943 2946 2948 2953 2959 2964 2970 2975 2978 2982 2985 2986 2983 2975 2973 2979 2981 2982 2986 2992 2998 3003 3008 3013 3018 3024 3028 3032 3036 3039 3042 3046 3049 3053 3058 3062 3065 3068 3070 3073 3074 3077 3079 3081 3083 3087 3092 3097 3099 3101 3104 3107 3110 3113 3115 3118 3120 3120 3121 3121 3123 3124 3116 3115 3118 3122 3128 3118 3105 3110 3114 3113 3116 3117 3117 3118 3119 3120 3122 3125 3126 3126 3127
2926 2929 2933 2935 2937 2940 2943 2946 2953 2958 2962 2967 2970 2972 2976 2979 2976 2972 2971 2975 2977 2974 2976 2982 2986 2993 3000 3006 3010 3014 3019 3023 3026 3030 3033 3036 3040 3043 3046 3049 3053 3058 3061 3064 3069 3072 3074 3075 3077 3081 3084 3087 3091 3095 3098 3101 3103 3106 3109 3113 3118 3120 3120 3119 3118 3118 3118 3114 3114 3117 3119 3121 3115 3107 3109 3112 3112 3115 3115 3116 3117 3118 3118 3120 3122 3122 3122 3122
2923 2926 2930 2931 2934 2937 2941 2946 2953 2956 2958 2962 2966 2969 2972 2970 2964 2964 2970 2973 2970 2969 2974 2979 2983 2989 2995 3001 3006 3011 3015 3019 3021 3026 3030 3033 3036 3039 3043 3046 3049 3052 3054 3059 3064 3067 3072 3074 3075 3077 3079 3082 3085 3088 3092 3094 3096 3099 3102 3106 3112 3117 3119 3118 3116 3115 3115 3114 3114 3116 3117 3115 3111 3109 3108 3108 3109 3110 3112 3114 3115 3115 3116 3117 3118 3119 3119 3120
2920 2923 2926 2928 2931 2935 2939 2945 2950 2952 2954 2957 2961 2964 2965 2961 2959 2964 2968 2967 2968 2971 2973 2976 2982 2987 2989 2994 3001 3006 3010 3015 3019 3023 3026 3029 3033 3035 3039 3043 3047 3051 3054 3058 3061 3063 3067 3069 3068 3070 3074 3077 3079 3083 3086 3088 3091 3094 3097 3101 3104 3108 3112 3114 3114 3114 3114 3113 3112 3114 3115 3110 3107 3107 3105 3105 3106 3107 3108 3111 3112 3113 3113 3114 3115 3116 3118 3118
2917 2920 2923 2925 2928 2932 2937 2942 2946 2948 2950 2953 2958 2958 2954 2954 2958 2962 2964 2966 2971 2971 2971 2976 2981 2985 2988 2991 2998 3002 3005 3010 3016 3019 3020 3021 3025 3029 3033 3037 3042 3048 3051 3054 3057 3061 3064 3063 3063 3067 3070 3072 3075 3080 3084 3087 3090 3092 3096 3100 3100 3101 3106 3110 3111 3112 3113 3113 3111 3111 3109 3106 3105 3103 3103 3105 3105 3105 3106 3108 3110 3112 3112 3112 3112 3113 3115 3116
2912 2916 2919 2921 2924 2929 2934 2939 2942 2944 2947 2950 2952 2950 2948 2952 2956 2959 2963 2968 2970 2969 2970 2975 2978 2981 2986 2990 2994 3000 3003 3007 3012 3015 3015 3017 3020 3024 3028 3032 3036 3041 3045 3048 3052 3056 3060 3061 3062 3065 3068 3069 3073 3076 3080 3083 3087 3089 3091 3093 3095 3098 3103 3107 3109 3109 3113 3113 3109 3106 3104 3104 3105 3103 3102 3104 3103 3104 3105 3105 3108 3110 3110 3109 3109 3110 3112 3113
2906 2910 2914 2916 2921 2927 2932 2936 2938 2941 2945 2947 2947 2945 2948 2952 2954 2958 2963 2965 2968 2969 2968 2969 2971 2976 2981 2985 2990 2994 3000 3005 3007 3009 3011 3014 3018 3020 3024 3029 3033 3038 3042 3046 3049 3051 3055 3059 3060 3062 3065 3067 3071 3076 3079 3081 3082 3084 3086 3089 3094 3099 3101 3104 3106 3107 3110 3110 3104 3100 3099 3101 3104 3102 3101 3101 3102 3102 3103 3103 3105 3106 3106 3106 3106 3108 3109 3110
2902 2907 2910 2913 2919 2925 2929 2932 2934 2938 2943 2944 2944 2945 2947 2950 2953 2957 2960 2962 2966 2969 2966 2964 2968 2973 2976 2980 2986 2990 2996 3000 3002 3005 3007 3010 3012 3016 3021 3026 3030 3036 3040 3044 3048 3049 3052 3057 3059 3060 3063 3065 3070 3074 3076 3077 3079 3080 3083 3087 3092 3095 3096 3098 3101 3101 3103 3104 3099 3095 3094 3096 3097 3096 3096 3099 3101 3103 3103 3103 3104 3104 3105 3105 3105 3106 3106 3107
2901 2905 2907 2911 2918 2922 2925 2928 2932 2936 2939 2939 2940 2942 2945 2948 2951 2954 2959 2962 2964 2966 2966 2964 2965 2971 2975 2978 2982 2987 2990 2993 2997 3001 3004 3005 3008 3013 3017 3021 3026 3032 3036 3040 3044 3046 3049 3053 3056 3058 3061 3063 3065 3067 3068 3070 3074 3078 3081 3084 3086 3089 3090 3090 3092 3093 3095 3096 3094 3092 3090 3089 3088 3089 3093 3096 3099 3101 3103 3103 3104 3104 3104 3104 3103 3103 3103 3104
2898 2901 2903 2909 2916 2919 2922 2927 2930 2933 2935 2935 2937 2941 2944 2947 2950 2953 2958 2961 2962 2962 2963 2963 2963 2968 2973 2977 2981 2984 2987 2990 2992 2996 3000 3004 3008 3012 3015 3018 3022 3027 3032 3037 3040 3043 3046 3049 3053 3056 3059 3060 3059 3058 3059 3061 3065 3070 3075 3078 3081 3084 3085 3086 3087 3088 3090 3090 3090 3089 3086 3083 3083 3087 3090 3093 3096 3098 3100 3101 3101 3102 3103 3102 3101 3101 3101 3101
2895 2898 2900 2907 2913 2915 2920 2925 2927 2930 2932 2934 2936 2939 2942 2945 2948 2952 2957 2960 2960 2959 2961 2963 2963 2964 2969 2974 2978 2982 2986 2989 2990 2993 2997 3001 3005 3008 3012 3016 3019 3023 3029 3033 3035 3039 3042 3045 3049 3052 3053 3053 3053 3054 3057 3060 3062 3066 3068 3070 3073 3075 3079 3082 3083 3083 3085 3085 3084 3086 3083 3079 3082 3086 3088 3090 3093 3096 3098 3098 3099 3100 3100 3099 3099 3098 3099 3099
2893 2896 2900 2905 2909 2912 2918 2922 2925 2929 2930 2931 2934 2936 2940 2943 2946 2950 2954 2957 2957 2957 2958 2962 2963 2962 2965 2970 2974 2980 2984 2987 2989 2991 2994 2997 3001 3005 3008 3012 3017 3021 3025 3028 3031 3036 3040 3043 3046 3048 3049 3050 3053 3055 3058 3060 3063 3066 3067 3068 3070 3072 3073 3075 3077 3078 3080 3081 3082 3084 3082 3076 3079 3085 3086 3087 3089 3092 3095 3095 3095 3096 3096 3096 3096 3095 3095 3095
2891 2895 2900 2904 2906 2910 2915 2919 2923 2927 2927 2929 2933 2936 2938 2942 2944 2948 2951 2953 2955 2955 2953 2956 2960 2963 2965 2968 2973 2979 2983 2985 2988 2989 2992 2996 3000 3004 3007 3010 3014 3019 3023 3025 3030 3034 3038 3040 3043 3046 3048 3050 3052 3054 3056 3059 3062 3064 3064 3066 3067 3068 3070 3072 3074 3076 3078 3079 3081 3083 3081 3074 3076 3082 3083 3083 3084 3087 3090 3091 3091 3091 3092 3093 3093 3092 3091 3090
2891 2895 2899 2902 2906 2910 2912 2914 2919 2922 2924 2927 2931 2934 2937 2940 2942 2945 2947 2949 2953 2953 2950 2952 2957 2961 2965 2969 2972 2977 2981 2984 2985 2988 2992 2996 2999 3002 3005 3008 3011 3015 3018 3020 3023 3027 3032 3034 3038 3043 3046 3048 3051 3053 3055 3057 3058 3057 3058 3060 3063 3066 3069 3072 3074 3076 3076 3077 3078 3079 3077 3073 3074 3079 3080 3078 3079 3081 3084 3086 3086 3087 3089 3089 3088 3087 3087 3086
2890 2895 2899 2901 2904 2908 2910 2913 2916 2919 2922 2926 2929 2931 2935 2937 2940 2942 2946 2948 2950 2951 2950 2951 2955 2958 2963 2968 2971 2975 2980 2981 2983 2986 2989 2993 2997 3000 3003 3005 3008 3012 3016 3019 3021 3024 3027 3029 3031 3034 3036 3037 3039 3041 3043 3045 3049 3051 3054 3058 3061 3064 3066 3068 3070 3072 3073 3073 3074 3073 3072 3071 3072 3075 3076 3076 3077 3078 3079 3081 3081 3083 3084 3085 3085 3083 3082 3081
2889 2893 2897 2899 2903 2906 2909 2912 2915 2918 2920 2923 2926 2929 2932 2936 2938 2941 2945 2946 2947 2948 2950 2951 2953 2957 2961 2965 2969 2973 2977 2980 2982 2983 2985 2988 2992 2997 3001 3004 3007 3010 3014 3018 3021 3023 3026 3027 3028 3028 3029 3030 3030 3032 3035 3038 3043 3048 3051 3054 3057 3059 3061 3064 3066 3067 3067 3068 3069 3069 3070 3070 3070 3070 3071 3073 3075 3077 3077 3077 3078 3078 3079 3080 3081 3080 3079 3078
2889 2892 2893 2896 2900 2905 2908 2911 2914 2917 2919 2922 2924 2926 2930 2934 2938 2940 2942 2943 2944 2945 2948 2950 2952 2955 2958 2962 2967 2971 2974 2978 2981 2982 2984 2986 2989 2994 2999 3001 3005 3008 3012 3016 3018 3020 3022 3024 3026 3028 3029 3031 3033 3034 3036 3038 3041 3044 3046 3049 3052 3055 3058 3060 3060 3060 3063 3066 3065 3066 3068 3069 3067 3066 3067 3069 3072 3074 3074 3074 3074 3074 3074 3075 3075 3076 3076 3076
2888 2891 2893 2894 2896 2898 2902 2906 2911 2915 2918 2921 2923 2925 2929 2932 2935 2938 2938 2939 2942 2944 2946 2948 2951 2954 2957 2960 2964 2968 2972 2976 2979 2982 2983 2985 2988 2992 2996 2999 3003 3005 3009 3012 3014 3016 3018 3020 3023 3026 3029 3031 3033 3034 3035 3037 3039 3042 3044 3046 3049 3052 3054 3055 3055 3057 3060 3061 3060 3062 3065 3065 3063 3063 3064 3066 3068 3069 3069 3069 3069 3070 3070 3070 3070 3070 3070 3071
2886 2889 2893 2895 2895 2896 2898 2903 2908 2912 2916 2919 2922 2924 2926 2929 2932 2935 2937 2937 2939 2943 2945 2947 2949 2953 2957 2960 2963 2966 2968 2972 2975 2978 2981 2984 2987 2989 2992 2997 3000 3002 3006 3008 3009 3012 3016 3018 3021 3024 3027 3030 3030 3031 3033 3035 3037 3039 3042 3044 3047 3049 3050 3052 3053 3055 3056 3056 3056 3059 3060 3058 3059 3061 3061 3062 3064 3064 3065 3065 3065 3065 3065 3064 3065 3065 3065 3065
2885 2888 2891 2894 2896 2898 2901 2903 2906 2909 2913 2917 2919 2922 2925 2927 2929 2933 2936 2935 2936 2940 2944 2946 2949 2953 2956 2959 2962 2964 2966 2969 2971 2974 2978 2982 2984 2986 2989 2992 2996 2999 3004 3006 3008 3010 3012 3015 3018 3020 3023 3025 3027 3029 3031 3032 3034 3037 3039 3042 3044 3046 3048 3050 3050 3051 3051 3051 3052 3054 3055 3053 3056 3058 3058 3059 3060 3060 3060 3060 3060 3060 3060 3060 3060 3060 3060 3060
2885 2887 2890 2892 2894 2897 2900 2903 2905 2908 2910 2913 2916 2919 2923 2926 2928 2931 2935 2936 2937 2939 2941 2944 2948 2952 2955 2958 2961 2963 2966 2970 2973 2976 2978 2980 2981 2983 2986 2990 2993 2997 3001 3005 3006 3007 3010 3013 3016 3018 3020 3022 3024 3027 3028 3030 3033 3035 3036 3039 3041 3042 3043 3044 3044 3044 3045 3045 3047 3050 3049 3048 3050 3053 3055 3055 3055 3055 3054 3054 3056 3057 3057 3057 3056 3056 3057 3056
2885 2888 2891 2892 2894 2897 2898 2901 2904 2907 2908 2910 2914 2918 2922 2925 2928 2931 2934 2936 2938 2941 2943 2945 2947 2950 2952 2956 2959 2962 2966 2970 2974 2977 2979 2981 2983 2985 2987 2991 2994 2997 3001 3004 3005 3006 3009 3012 3015 3016 3017 3019 3022 3024 3026 3029 3031 3030 3032 3035 3036 3036 3037 3037 3038 3039 3040 3041 3042 3041 3041 3042 3046 3049 3051 3051 3051 3050 3050 3051 3052 3053 3053 3053 3053 3053 3052 3051